N5CSU Weather Reports


time (UTC)temp
C
wind
direction
speed
KPH
gust
KPH
rain 1hr
cm
rain 24hr
cm
rain mn
cm
humidity
%
barometer
mb
20240527194736 33 177 0.0 0.0 0.00 0.00 0.00 65 1013.2
20240527194235 33 174 1.6 4.8 0.00 0.00 0.00 64 1013.2
20240527193734 33 209 0.0 4.8 0.00 0.00 0.00 66 1013.2
20240527193234 33 162 3.2 4.8 0.00 0.00 0.00 63 1013.2
20240527192734 33 173 0.0 0.0 0.00 0.00 0.00 65 1013.2
20240527192234 33 173 3.2 4.8 0.00 0.00 0.00 65 1013.5
20240527191733 33 165 0.0 0.0 0.00 0.00 0.00 65 1013.2
20240527191232 33 167 0.0 0.0 0.00 0.00 0.00 62 1013.5
20240527190730 33 171 0.0 4.8 0.00 0.00 0.00 61 1013.8
20240527190230 33 170 0.0 0.0 0.00 0.00 0.00 63 1013.5
20240527185729 33 174 0.0 0.0 0.00 0.00 0.00 61 1013.5
20240527185228 33 175 0.0 0.0 0.00 0.00 0.00 62 1013.8
20240527184728 33 191 1.6 4.8 0.00 0.00 0.00 62 1013.5
20240527184228 33 168 0.0 4.8 0.00 0.00 0.00 59 1013.8
20240527183727 32 167 0.0 0.0 0.00 0.00 0.00 63 1013.8
20240527183228 32 165 0.0 4.8 0.00 0.00 0.00 65 1013.5
20240527182727 32 170 0.0 4.8 0.00 0.00 0.00 62 1013.8
20240527182226 32 176 0.0 0.0 0.00 0.00 0.00 68 1013.8
20240527181726 32 166 1.6 4.8 0.00 0.00 0.00 67 1014.2
20240527181224 32 172 1.6 4.8 0.00 0.00 0.00 66 1014.2
20240527180724 32 158 4.8 4.8 0.00 0.00 0.00 70 1013.8
20240527180223 32 162 0.0 0.0 0.00 0.00 0.00 71 1014.2
20240527175722 32 159 1.6 4.8 0.00 0.00 0.00 71 1014.2
20240527175220 32 169 0.0 0.0 0.00 0.00 0.00 69 1014.2
20240527174719 32 175 0.0 4.8 0.00 0.00 0.00 71 1014.2
20240527174218 32 158 4.8 8.0 0.00 0.00 0.00 67 1014.2
20240527173716 32 173 1.6 4.8 0.00 0.00 0.00 67 1014.2
20240527173215 32 170 1.6 4.8 0.00 0.00 0.00 70 1013.8
20240527172715 32 175 0.0 0.0 0.00 0.00 0.00 69 1014.2
20240527172215 32 173 0.0 0.0 0.00 0.00 0.00 69 1014.2
20240527171713 32 58 3.2 4.8 0.00 0.00 0.00 68 1014.5
20240527171212 32 167 0.0 0.0 0.00 0.00 0.00 68 1014.2
20240527170711 31 28 6.4 8.0 0.00 0.00 0.00 70 1014.2
20240527170210 31 163 0.0 0.0 0.00 0.00 0.00 69 1014.5
20240527165709 31 180 0.0 0.0 0.00 0.00 0.00 75 1014.8
20240527165208 31 164 0.0 4.8 0.00 0.00 0.00 74 1014.5
20240527164707 31 167 0.0 0.0 0.00 0.00 0.00 76 1014.5
20240527164206 31 162 0.0 0.0 0.00 0.00 0.00 77 1014.2
20240527163705 31 163 0.0 0.0 0.00 0.00 0.00 78 1014.5
20240527163205 30 168 0.0 0.0 0.00 0.00 0.00 78 1014.2
20240527162704 30 168 0.0 0.0 0.00 0.00 0.00 78 1014.2
20240527162203 30 174 0.0 0.0 0.00 0.00 0.00 79 1014.5
20240527161702 30 166 0.0 0.0 0.00 0.00 0.00 81 1014.2
20240527161201 30 187 1.6 4.8 0.00 0.00 0.00 80 1014.2
20240527160701 30 182 0.0 0.0 0.00 0.00 0.00 80 1014.2
20240527160159 30 176 0.0 0.0 0.00 0.00 0.00 80 1013.8
20240527155659 30 166 0.0 0.0 0.00 0.00 0.00 81 1014.2
20240527155157 30 165 0.0 4.8 0.00 0.00 0.00 82 1014.2
20240527154656 30 163 0.0 0.0 0.00 0.00 0.00 82 1014.2
20240527154156 29 162 0.0 0.0 0.00 0.00 0.00 83 1013.8
20240527153655 29 162 0.0 0.0 0.00 0.00 0.00 83 1013.8
20240527153154 29 174 0.0 0.0 0.00 0.00 0.00 83 1013.8
20240527152654 29 172 0.0 4.8 0.00 0.00 0.00 84 1014.2
20240527152152 28 173 0.0 0.0 0.00 0.00 0.00 84 1013.8
20240527151652 28 185 0.0 0.0 0.00 0.00 0.00 85 1013.8
20240527151151 28 172 0.0 0.0 0.00 0.00 0.00 87 1013.8
20240527150650 28 184 0.0 0.0 0.00 0.00 0.00 87 1013.8
20240527150150 28 164 0.0 0.0 0.00 0.00 0.00 86 1013.5
20240527145648 28 173 0.0 0.0 0.00 0.00 0.00 88 1013.8
20240527145147 28 169 0.0 0.0 0.00 0.00 0.00 88 1013.5
20240527144647 28 169 0.0 0.0 0.00 0.00 0.00 87 1013.8
20240527144146 28 172 0.0 0.0 0.00 0.00 0.00 87 1013.5
20240527143646 28 167 0.0 0.0 0.00 0.00 0.00 88 1013.8
20240527143145 27 173 0.0 0.0 0.00 0.00 0.00 88 1013.8
20240527142646 27 177 0.0 0.0 0.00 0.00 0.00 89 1013.5
20240527142145 27 167 0.0 0.0 0.00 0.00 0.00 89 1013.5
20240527141643 27 169 0.0 0.0 0.00 0.00 0.00 89 1013.5
20240527141142 27 161 0.0 0.0 0.00 0.00 0.00 90 1013.5
20240527140643 27 169 0.0 0.0 0.00 0.00 0.00 90 1013.5
20240527140141 26 163 1.6 4.8 0.00 0.00 0.00 91 1013.5
20240527135640 26 171 0.0 0.0 0.00 0.00 0.00 91 1013.5
20240527135139 26 167 0.0 0.0 0.00 0.00 0.00 92 1013.5
20240527134638 26 175 0.0 0.0 0.00 0.00 0.00 93 1013.5
20240527134137 26 175 0.0 0.0 0.00 0.00 0.00 93 1013.2
20240527133635 25 167 0.0 0.0 0.00 0.00 0.00 93 1013.2
20240527133135 25 168 0.0 0.0 0.00 0.00 0.00 94 1013.2
20240527132634 25 160 1.6 4.8 0.00 0.00 0.00 96 1013.2
20240527132133 25 171 0.0 0.0 0.00 0.00 0.00 97 1013.2
20240527131631 25 173 0.0 0.0 0.00 0.00 0.00 97 1013.2
20240527131130 25 173 0.0 0.0 0.00 0.00 0.00 97 1013.2
20240527130629 24 173 0.0 0.0 0.00 0.00 0.00 98 1012.8
20240527130128 24 179 0.0 0.0 0.00 0.00 0.00 98 1012.8
20240527125627 23 173 0.0 0.0 0.00 0.00 0.00 98 1012.8
20240527125126 23 173 0.0 0.0 0.00 0.00 0.00 98 1012.8
20240527124624 23 173 0.0 0.0 0.00 0.00 0.00 98 1012.8
20240527124107 23 173 0.0 0.0 0.00 0.00 0.00 98 1012.5
20240527123606 23 173 0.0 0.0 0.00 0.00 0.00 98 1012.5
20240527123105 23 173 0.0 0.0 0.00 0.00 0.00 98 1012.5
20240527122604 23 174 0.0 0.0 0.00 0.00 0.00 98 1012.1
20240527122104 23 174 0.0 0.0 0.00 0.00 0.00 98 1012.5
20240527121602 23 174 0.0 0.0 0.00 0.00 0.00 97 1012.5
20240527121101 23 174 0.0 0.0 0.00 0.00 0.00 97 1012.1
20240527120600 22 174 0.0 0.0 0.00 0.00 0.00 97 1012.1
20240527120059 22 174 0.0 0.0 0.00 0.00 0.00 97 1012.1
20240527115559 22 174 0.0 0.0 0.00 0.00 0.00 97 1011.8
20240527115058 22 173 0.0 0.0 0.00 0.00 0.00 97 1011.8
20240527114556 22 173 0.0 0.0 0.00 0.00 0.00 97 1011.5
20240527114055 22 175 0.0 0.0 0.00 0.00 0.00 97 1011.5
20240527113555 22 175 0.0 0.0 0.00 0.00 0.00 97 1011.5
20240527113054 22 175 0.0 0.0 0.00 0.00 0.00 97 1011.5
20240527112553 22 175 0.0 0.0 0.00 0.00 0.00 97 1011.1
20240527112053 22 175 0.0 0.0 0.00 0.00 0.00 97 1011.1
20240527111551 22 175 0.0 0.0 0.00 0.00 0.00 97 1010.8
20240527111051 22 175 0.0 0.0 0.00 0.00 0.00 97 1010.8
20240527110550 23 175 0.0 0.0 0.00 0.00 0.00 97 1010.8
20240527110048 23 175 0.0 0.0 0.00 0.00 0.00 97 1010.8
20240527105547 23 175 0.0 0.0 0.00 0.00 0.00 97 1010.4
20240527105046 23 175 0.0 0.0 0.00 0.00 0.00 97 1010.4
20240527104545 23 175 0.0 0.0 0.00 0.00 0.00 97 1010.4
20240527104044 23 175 0.0 0.0 0.00 0.00 0.00 97 1010.8
20240527103543 23 175 0.0 0.0 0.00 0.00 0.00 97 1010.8
20240527103043 23 175 0.0 0.0 0.00 0.00 0.00 97 1010.8
20240527102541 23 175 0.0 0.0 0.00 0.00 0.00 97 1010.4
20240527102041 23 175 0.0 0.0 0.00 0.00 0.00 97 1010.4
20240527101540 23 175 0.0 0.0 0.00 0.00 0.00 97 1010.4
20240527101040 23 175 0.0 0.0 0.00 0.00 0.00 97 1010.4
20240527100539 23 175 0.0 0.0 0.00 0.00 0.00 97 1010.4
20240527100037 23 175 0.0 0.0 0.00 0.00 0.00 97 1010.4
20240527095537 23 175 0.0 0.0 0.00 0.00 0.00 97 1010.4
20240527095037 23 175 0.0 0.0 0.00 0.00 0.00 97 1010.1
20240527094536 23 175 0.0 0.0 0.00 0.00 0.00 97 1010.4
20240527094035 23 175 0.0 0.0 0.00 0.00 0.00 97 1010.1
20240527093534 23 175 0.0 0.0 0.00 0.00 0.00 97 1010.1
20240527093032 23 175 0.0 0.0 0.00 0.00 0.00 97 1010.1
20240527092531 23 175 0.0 0.0 0.00 0.00 0.00 97 1010.1
20240527092029 23 175 0.0 0.0 0.00 0.00 0.00 97 1010.1
20240527091529 23 175 0.0 0.0 0.00 0.00 0.00 97 1010.1
20240527091028 23 175 0.0 0.0 0.00 0.00 0.00 97 1009.8
20240527090526 23 175 0.0 0.0 0.00 0.00 0.00 96 1009.8
20240527090025 23 174 0.0 0.0 0.00 0.00 0.00 96 1009.8
20240527085523 23 174 0.0 0.0 0.00 0.00 0.00 96 1009.8
20240527085022 23 174 0.0 0.0 0.00 0.00 0.00 96 1009.8
20240527084521 23 174 0.0 0.0 0.00 0.00 0.00 96 1009.4
20240527084021 23 174 0.0 0.0 0.00 0.00 0.00 96 1009.8
20240527083520 23 174 0.0 0.0 0.00 0.00 0.00 96 1009.8
20240527083019 23 174 0.0 0.0 0.00 0.00 0.00 96 1009.8
20240527082518 23 174 0.0 0.0 0.00 0.00 0.00 97 1009.8
20240527082017 24 174 0.0 0.0 0.00 0.00 0.00 96 1009.8
20240527081517 24 174 0.0 0.0 0.00 0.00 0.00 96 1009.4
20240527081016 24 174 0.0 0.0 0.00 0.00 0.00 96 1009.8
20240527080514 24 174 0.0 0.0 0.00 0.00 0.00 96 1009.8
20240527080012 24 174 0.0 0.0 0.00 0.00 0.00 96 1009.4
20240527075511 24 174 0.0 0.0 0.00 0.00 0.00 96 1009.4
20240527075010 24 174 0.0 0.0 0.00 0.00 0.00 96 1009.8
20240527074509 24 174 0.0 0.0 0.00 0.00 0.00 96 1009.4
20240527074009 24 174 0.0 0.0 0.00 0.00 0.00 96 1009.4
20240527073508 24 174 0.0 0.0 0.00 0.00 0.00 96 1009.4
20240527073009 25 174 0.0 0.0 0.00 0.00 0.00 96 1009.4
20240527072508 25 174 0.0 0.0 0.00 0.00 0.00 96 1009.4
20240527072007 25 174 0.0 0.0 0.00 0.00 0.00 96 1009.4
20240527071505 25 174 0.0 0.0 0.00 0.00 0.00 96 1009.4
20240527071005 25 174 0.0 0.0 0.00 0.00 0.00 96 1009.8
20240527070503 25 174 0.0 0.0 0.00 0.00 0.00 96 1009.8
20240527070000 25 174 0.0 0.0 0.00 0.00 0.00 96 1009.4
20240527065459 25 174 0.0 0.0 0.00 0.00 0.00 96 1009.1
20240527064957 25 174 0.0 0.0 0.00 0.00 0.00 96 1009.4
20240527064456 25 174 0.0 0.0 0.00 0.00 0.00 96 1009.4
20240527063955 25 174 0.0 0.0 0.00 0.00 0.00 96 1009.4
20240527063455 25 174 0.0 0.0 0.00 0.00 0.00 96 1009.4
20240527062952 25 174 0.0 0.0 0.00 0.00 0.00 95 1009.4
20240527062452 25 174 0.0 0.0 0.00 0.00 0.00 95 1009.4
20240527061950 25 174 0.0 0.0 0.00 0.00 0.00 95 1009.1
20240527061449 25 174 0.0 0.0 0.00 0.00 0.00 95 1009.4
20240527060947 25 174 0.0 0.0 0.00 0.00 0.00 95 1009.4
20240527060445 25 174 0.0 0.0 0.00 0.00 0.00 95 1009.1
20240527055944 25 174 0.0 0.0 0.00 0.00 0.00 95 1009.4
20240527055443 26 174 0.0 0.0 0.00 0.00 0.00 95 1009.4
20240527054941 26 174 0.0 0.0 0.00 0.00 0.00 95 1009.1
20240527054440 26 174 0.0 0.0 0.00 0.00 0.00 95 1009.1
20240527053938 26 174 0.0 0.0 0.00 0.00 0.00 94 1009.1
20240527053438 26 174 0.0 0.0 0.00 0.00 0.00 94 1009.1
20240527052935 26 174 0.0 0.0 0.00 0.00 0.00 94 1008.8
20240527052435 26 174 0.0 0.0 0.00 0.00 0.00 94 1009.1
20240527051934 26 174 0.0 0.0 0.00 0.00 0.00 93 1008.8
20240527051433 26 174 0.0 0.0 0.00 0.00 0.00 93 1008.8
20240527050932 26 174 0.0 0.0 0.00 0.00 0.00 93 1008.8
20240527050431 26 174 0.0 0.0 0.00 0.00 0.00 93 1008.8
20240527045931 26 174 0.0 0.0 0.00 0.00 0.00 93 1008.8
20240527045431 26 174 0.0 0.0 0.00 0.00 0.00 92 1008.8
20240527044929 26 174 0.0 0.0 0.00 0.00 0.00 92 1008.8
20240527044427 26 174 0.0 0.0 0.00 0.00 0.00 92 1008.8
20240527043927 27 174 0.0 0.0 0.00 0.00 0.00 92 1008.8
20240527043427 27 174 0.0 0.0 0.00 0.00 0.00 91 1008.8
20240527042926 27 174 0.0 0.0 0.00 0.00 0.00 91 1008.8
20240527042425 27 174 0.0 0.0 0.00 0.00 0.00 91 1008.8
20240527041924 27 174 0.0 0.0 0.00 0.00 0.00 91 1008.8
20240527041424 27 174 0.0 0.0 0.00 0.00 0.00 90 1008.8
20240527040923 27 174 0.0 0.0 0.00 0.00 0.00 90 1008.3
20240527040422 27 174 0.0 0.0 0.00 0.00 0.00 90 1008.0
20240527035921 27 175 0.0 0.0 0.00 0.00 0.00 90 1008.3
20240527035419 27 174 0.0 0.0 0.00 0.00 0.00 90 1008.3
20240527034918 28 174 0.0 0.0 0.00 0.00 0.00 89 1008.0
20240527034417 28 174 0.0 0.0 0.00 0.00 0.00 89 1008.3
20240527033916 28 174 0.0 0.0 0.00 0.00 0.00 88 1008.3
20240527033417 28 174 0.0 0.0 0.00 0.00 0.00 88 1008.0
20240527032915 28 174 0.0 0.0 0.00 0.00 0.00 87 1007.6
20240527032414 28 174 0.0 0.0 0.00 0.00 0.00 86 1008.0
20240527031913 28 174 0.0 0.0 0.00 0.00 0.00 86 1007.6
20240527031413 28 174 0.0 0.0 0.00 0.00 0.00 85 1007.6
20240527030911 28 174 0.0 0.0 0.00 0.00 0.00 84 1007.6
20240527030411 28 174 0.0 0.0 0.00 0.00 0.00 84 1007.6
20240527025909 28 174 0.0 0.0 0.00 0.00 0.00 83 1007.3
20240527025408 28 175 0.0 0.0 0.00 0.00 0.00 82 1007.3
20240527024908 28 175 0.0 0.0 0.00 0.00 0.00 82 1007.3
20240527024407 28 175 0.0 0.0 0.00 0.00 0.00 82 1007.3
20240527023906 28 174 0.0 0.0 0.00 0.00 0.00 81 1007.0
20240527023406 28 174 0.0 0.0 0.00 0.00 0.00 81 1007.0
20240527022904 28 174 0.0 0.0 0.00 0.00 0.00 81 1007.0
20240527022403 28 174 0.0 0.0 0.00 0.00 0.00 81 1006.6
20240527021902 28 174 0.0 0.0 0.00 0.00 0.00 80 1006.6
20240527021400 28 174 0.0 0.0 0.00 0.00 0.00 80 1006.6
20240527020859 28 174 0.0 0.0 0.00 0.00 0.00 78 1006.3
20240527020357 28 174 0.0 0.0 0.00 0.00 0.00 78 1006.3
20240527015855 28 174 0.0 0.0 0.00 0.00 0.00 77 1005.9
20240527015354 28 174 0.0 0.0 0.00 0.00 0.00 76 1006.3
20240527014459 29 174 0.0 0.0 0.00 0.00 0.00 72 1006.3
20240527013958 29 174 0.0 0.0 0.00 0.00 0.00 72 1006.3
20240527013454 29 174 0.0 0.0 0.00 0.00 0.00 72 1006.3
20240527012953 29 174 0.0 0.0 0.00 0.00 0.00 72 1005.9
20240527012451 30 174 0.0 0.0 0.00 0.00 0.00 70 1005.9
20240527011950 30 174 0.0 0.0 0.00 0.00 0.00 69 1005.9
20240527011448 30 174 0.0 0.0 0.00 0.00 0.00 68 1005.6
20240527010947 30 174 0.0 0.0 0.00 0.00 0.00 66 1005.9
20240527010446 31 174 0.0 0.0 0.00 0.00 0.00 64 1005.9
20240527005946 31 174 0.0 0.0 0.00 0.00 0.00 60 1005.9
20240527005445 31 174 0.0 0.0 0.00 0.00 0.00 60 1005.9
20240527004943 31 174 0.0 0.0 0.00 0.00 0.00 57 1005.3
20240527004443 31 174 0.0 0.0 0.00 0.00 0.00 57 1005.3
20240527003942 31 174 0.0 0.0 0.00 0.00 0.00 58 1005.3
20240527003440 32 174 0.0 0.0 0.00 0.00 0.00 56 1005.6
20240527002940 32 174 0.0 0.0 0.00 0.00 0.00 58 1005.3
20240527002440 32 174 0.0 0.0 0.00 0.00 0.00 57 1005.3
20240527001938 32 174 0.0 0.0 0.00 0.00 0.00 56 1005.3
20240527001436 32 174 0.0 0.0 0.00 0.00 0.00 55 1005.3
20240527000935 32 175 0.0 0.0 0.00 0.00 0.00 54 1005.3
20240527000434 32 174 0.0 0.0 0.00 0.00 0.00 54 1004.9
20240526235933 33 182 0.0 0.0 0.00 0.00 0.00 55 1005.3
20240526235431 33 168 0.0 0.0 0.00 0.00 0.00 54 1004.9
20240526234930 33 172 0.0 0.0 0.00 0.00 0.00 55 1004.9
20240526234428 33 173 0.0 0.0 0.00 0.00 0.00 55 1004.9
20240526233927 33 174 0.0 0.0 0.00 0.00 0.00 53 1004.9
20240526233426 33 165 0.0 0.0 0.00 0.00 0.00 54 1004.9
20240526232924 33 175 3.2 4.8 0.00 0.00 0.00 58 1004.9
20240526232423 33 178 0.0 0.0 0.00 0.00 0.00 57 1004.9
20240526231922 33 178 0.0 0.0 0.00 0.00 0.00 55 1004.9
20240526231421 33 171 0.0 0.0 0.00 0.00 0.00 54 1004.6
20240526230919 33 189 0.0 0.0 0.00 0.00 0.00 53 1004.9
20240526230418 33 174 0.0 0.0 0.00 0.00 0.00 54 1004.6
20240526225916 33 180 0.0 0.0 0.00 0.00 0.00 53 1004.9
20240526225415 33 181 0.0 0.0 0.00 0.00 0.00 58 1004.6
20240526224914 33 163 0.0 4.8 0.00 0.00 0.00 56 1004.6
20240526224412 33 167 1.6 4.8 0.00 0.00 0.00 54 1004.6
20240526223910 33 165 0.0 0.0 0.00 0.00 0.00 56 1004.6
20240526223410 33 164 1.6 4.8 0.00 0.00 0.00 55 1004.9
20240526222906 33 180 0.0 0.0 0.00 0.00 0.00 54 1004.9
20240526222404 33 181 0.0 0.0 0.00 0.00 0.00 55 1004.6
20240526221903 34 163 3.2 4.8 0.00 0.00 0.00 54 1004.6
20240526221402 34 165 3.2 4.8 0.00 0.00 0.00 54 1004.6
20240526220901 34 173 0.0 0.0 0.00 0.00 0.00 55 1004.9
20240526220359 34 186 1.6 4.8 0.00 0.00 0.00 56 1004.6
20240526215857 33 166 6.4 8.0 0.00 0.00 0.00 52 1004.6
20240526215356 33 176 0.0 0.0 0.00 0.00 0.00 57 1004.9
20240526214852 33 182 1.6 4.8 0.00 0.00 0.00 57 1004.9
20240526214352 33 156 1.6 4.8 0.00 0.00 0.00 56 1004.6
20240526213850 33 171 1.6 4.8 0.00 0.00 0.00 55 1004.9
20240526213350 33 163 0.0 0.0 0.00 0.00 0.00 54 1004.6
20240526212846 33 171 4.8 4.8 0.00 0.00 0.00 57 1004.6
20240526212345 33 182 0.0 0.0 0.00 0.00 0.00 60 1004.6
20240526211844 33 170 0.0 0.0 0.00 0.00 0.00 59 1004.9
20240526211341 33 181 1.6 4.8 0.00 0.00 0.00 58 1004.9
20240526210840 33 166 0.0 4.8 0.00 0.00 0.00 58 1004.9
20240526210340 33 166 4.8 8.0 0.00 0.00 0.00 58 1004.9
20240526205840 33 175 0.0 0.0 0.00 0.00 0.00 60 1004.9
20240526205339 33 170 3.2 4.8 0.00 0.00 0.00 59 1004.9
20240526204838 33 177 0.0 0.0 0.00 0.00 0.00 61 1004.9
20240526204337 33 177 3.2 4.8 0.00 0.00 0.00 60 1004.9
20240526203835 33 170 6.4 8.0 0.00 0.00 0.00 59 1005.3
20240526203334 33 200 0.0 4.8 0.00 0.00 0.00 61 1005.3
20240526202833 33 169 0.0 0.0 0.00 0.00 0.00 59 1005.3
20240526202332 33 147 4.8 4.8 0.00 0.00 0.00 60 1005.3
20240526201830 33 216 0.0 0.0 0.00 0.00 0.00 61 1005.3
20240526201329 33 168 0.0 0.0 0.00 0.00 0.00 58 1005.3
20240526200828 33 151 1.6 4.8 0.00 0.00 0.00 64 1005.3
20240526200326 33 194 6.4 8.0 0.00 0.00 0.00 60 1005.3
20240526195824 33 191 0.0 4.8 0.00 0.00 0.00 62 1005.3
20240526195322 33 143 1.6 4.8 0.00 0.00 0.00 63 1004.9